Weather in Khotisino

Russia / Kaluga Oblast     54°23′53″N   36°33′15″E
temp.,
°C
wind,
m/s
gust,
m/s
humid.,
%
clouds,
%
prec.,
mm/h
press.,
hPa
HPBL,
m
22 april, thu
thu2200:00+2ssw389477 0.0 1013203
03:00+2s399766 0.0 1013229
06:00+2s4109832 0.0 1014261
09:00+6ssw51184100 0.0 1015514
12:00+12ssw686677 0.0 10151196
15:00+13ssw586437 0.9 10141263
18:00+13ssw596751 0.7 1014816
21:00+9s41287100 3.0 1015310
23 april, fri
fri2300:00+8s4128918 0.1 1015311
03:00+7s514875 0.1 1015391
06:00+7s5128822 0.0 1014336
09:00+11s7147275 0.0 1014804
12:00+14ssw8145974 0.4 10131942
15:00+11wsw5978100 2.3 1013927
18:00+7wnw469298 1.3 1013404
21:00+5wnw3593100 2.4 1013389
24 april, sat
sat2400:00+4nnw3596100 6.4 1011599
03:00+3wnw4897100 13.4 1011467
06:00+4wsw2594100 0.5 1010449
09:00+6wnw4675100 0.8 1010917
12:00+8wnw565684 0.4 10091761
15:00+9wnw564395 0.6 10092155
18:00+8w585325 0.1 10091192
21:00+3w38775 0.2 1011208
25 april, sun
sun2500:00+2wsw410785 0.0 1011302
03:000wsw410885 0.0 1011323
06:000wsw4109013 0.0 1012363
09:00+4wsw696925 0.2 10111217
12:00+6wsw794699 0.3 10112234
15:00+7w7943100 0.3 10112536
18:00+5w696115 0.3 10121444
21:00+2wsw410755 0.3 1014390
26 april, mon
mon2600:000sw410845 0.0 1014279
03:00−1sw39875 0.0 1014257
06:00−1sw39845 0.0 1014302
09:00+4wsw576315 0.0 10131103
12:00+7wsw5745100 0.3 10122215
15:00+8wsw4541100 0.3 10122258
18:00+6wsw346098 0.8 1011844
21:00+2wnw227951 1.6 101223